TimeCDT,TemperatureF,Dew PointF,Humidity,Sea Level PressureIn,VisibilityMPH,Wind Direction,Wind SpeedMPH,Gust SpeedMPH,PrecipitationIn,Events,Conditions,WindDirDegrees,DateUTC
12:15 AM,55.4,46.4,72,29.97,10.0,South,6.9,-,N/A,,Clear,170,2012-10-04 05:15:00
12:35 AM,55.4,46.4,72,29.97,10.0,South,6.9,-,N/A,,Clear,170,2012-10-04 05:35:00
12:55 AM,55.4,46.4,72,29.96,10.0,South,6.9,-,N/A,,Clear,170,2012-10-04 05:55:00
1:15 AM,55.4,46.4,72,29.96,10.0,South,6.9,-,N/A,,Clear,170,2012-10-04 06:15:00
1:35 AM,53.6,46.4,77,29.96,10.0,SSE,8.1,-,N/A,,Clear,160,2012-10-04 06:35:00
1:55 AM,53.6,48.2,82,29.95,10.0,South,8.1,-,N/A,,Clear,170,2012-10-04 06:55:00
2:15 AM,53.6,48.2,82,29.95,10.0,SSE,8.1,-,N/A,,Clear,160,2012-10-04 07:15:00
2:35 AM,53.6,48.2,82,29.94,10.0,South,8.1,-,N/A,,Clear,170,2012-10-04 07:35:00
2:55 AM,53.6,48.2,82,29.94,10.0,South,6.9,-,N/A,,Clear,170,2012-10-04 07:55:00
3:15 AM,53.6,48.2,82,29.94,10.0,South,6.9,-,N/A,,Clear,170,2012-10-04 08:15:00
3:35 AM,53.6,48.2,82,29.94,10.0,South,6.9,-,N/A,,Clear,170,2012-10-04 08:35:00
3:55 AM,53.6,48.2,82,29.93,10.0,SSE,8.1,-,N/A,,Clear,160,2012-10-04 08:55:00
4:15 AM,53.6,48.2,82,29.93,10.0,South,6.9,-,N/A,,Clear,170,2012-10-04 09:15:00
4:35 AM,53.6,48.2,82,29.92,10.0,South,8.1,-,N/A,,Clear,170,2012-10-04 09:35:00
4:55 AM,53.6,48.2,82,29.93,10.0,South,6.9,-,N/A,,Clear,170,2012-10-04 09:55:00
5:15 AM,53.6,48.2,82,29.92,10.0,South,6.9,-,N/A,,Clear,170,2012-10-04 10:15:00
5:35 AM,53.6,48.2,82,29.92,10.0,South,9.2,-,N/A,,Clear,180,2012-10-04 10:35:00
5:55 AM,53.6,46.4,77,29.92,10.0,South,6.9,-,N/A,,Clear,180,2012-10-04 10:55:00
6:15 AM,53.6,46.4,77,29.91,10.0,South,8.1,-,N/A,,Clear,170,2012-10-04 11:15:00
6:35 AM,51.8,46.4,82,29.92,10.0,South,6.9,-,N/A,,Clear,180,2012-10-04 11:35:00
6:55 AM,51.8,46.4,82,29.92,10.0,South,6.9,-,N/A,,Clear,190,2012-10-04 11:55:00
7:15 AM,51.8,46.4,82,29.92,10.0,SSW,9.2,-,N/A,,Scattered Clouds,200,2012-10-04 12:15:00
7:35 AM,53.6,46.4,77,29.92,10.0,SSW,8.1,-,N/A,,Scattered Clouds,210,2012-10-04 12:35:00
7:55 AM,53.6,46.4,77,29.92,10.0,SSW,8.1,-,N/A,,Scattered Clouds,210,2012-10-04 12:55:00
8:15 AM,55.4,46.4,72,29.93,10.0,WSW,10.4,18.4,N/A,,Scattered Clouds,250,2012-10-04 13:15:00
8:35 AM,53.6,42.8,67,29.94,10.0,West,16.1,25.3,N/A,,Scattered Clouds,260,2012-10-04 13:35:00
8:55 AM,51.8,41.0,67,29.95,10.0,West,16.1,25.3,N/A,,Scattered Clouds,270,2012-10-04 13:55:00
9:15 AM,51.8,41.0,67,29.95,10.0,West,8.1,-,N/A,,Scattered Clouds,280,2012-10-04 14:15:00
9:35 AM,51.8,42.8,71,29.97,10.0,West,10.4,-,N/A,,Scattered Clouds,260,2012-10-04 14:35:00
9:55 AM,50.0,41.0,71,29.98,10.0,WSW,13.8,17.3,N/A,,Scattered Clouds,250,2012-10-04 14:55:00
10:15 AM,51.8,41.0,67,29.97,10.0,West,13.8,24.2,N/A,,Scattered Clouds,260,2012-10-04 15:15:00
10:35 AM,53.6,41.0,62,29.98,10.0,West,15.0,20.7,N/A,,Clear,270,2012-10-04 15:35:00
10:55 AM,53.6,39.2,58,29.99,10.0,West,13.8,21.9,N/A,,Clear,280,2012-10-04 15:55:00
11:15 AM,53.6,39.2,58,29.98,10.0,West,11.5,16.1,N/A,,Clear,270,2012-10-04 16:15:00
11:35 AM,53.6,39.2,58,29.98,10.0,West,13.8,21.9,N/A,,Clear,270,2012-10-04 16:35:00
11:55 AM,55.4,39.2,54,29.98,10.0,West,8.1,18.4,N/A,,Clear,270,2012-10-04 16:55:00
12:15 PM,57.2,37.4,48,29.98,10.0,West,16.1,21.9,N/A,,Clear,260,2012-10-04 17:15:00
12:35 PM,57.2,37.4,48,30.00,10.0,WSW,16.1,19.6,N/A,,Clear,250,2012-10-04 17:35:00
12:55 PM,59.0,35.6,42,30.00,10.0,WNW,11.5,19.6,N/A,,Clear,290,2012-10-04 17:55:00
1:15 PM,59.0,35.6,42,30.00,10.0,WSW,16.1,26.5,N/A,,Scattered Clouds,250,2012-10-04 18:15:00
1:35 PM,55.4,33.8,44,30.01,10.0,West,12.7,24.2,N/A,,Mostly Cloudy,280,2012-10-04 18:35:00
1:55 PM,57.2,33.8,41,30.01,10.0,West,11.5,20.7,N/A,,Scattered Clouds,280,2012-10-04 18:55:00
2:15 PM,57.2,33.8,41,30.02,10.0,West,13.8,26.5,N/A,,Clear,270,2012-10-04 19:15:00
2:35 PM,57.2,33.8,41,30.02,10.0,West,13.8,20.7,N/A,,Scattered Clouds,280,2012-10-04 19:35:00
2:55 PM,57.2,33.8,41,30.03,10.0,West,16.1,23.0,N/A,,Scattered Clouds,260,2012-10-04 19:55:00
3:15 PM,57.2,33.8,41,30.03,10.0,WNW,15.0,20.7,N/A,,Scattered Clouds,290,2012-10-04 20:15:00
3:35 PM,57.2,33.8,41,30.03,10.0,West,13.8,23.0,N/A,,Clear,280,2012-10-04 20:35:00
3:55 PM,55.4,32.0,41,30.04,10.0,West,10.4,21.9,N/A,,Clear,280,2012-10-04 20:55:00
4:15 PM,55.4,33.8,44,30.04,10.0,WSW,16.1,25.3,N/A,,Clear,250,2012-10-04 21:15:00
4:35 PM,53.6,32.0,44,30.05,10.0,West,12.7,20.7,N/A,,Clear,270,2012-10-04 21:35:00
4:55 PM,53.6,32.0,44,30.05,10.0,WNW,12.7,17.3,N/A,,Clear,290,2012-10-04 21:55:00
5:15 PM,53.6,32.0,44,30.05,10.0,West,12.7,17.3,N/A,,Clear,280,2012-10-04 22:15:00
5:35 PM,51.8,32.0,47,30.06,10.0,West,13.8,18.4,N/A,,Clear,280,2012-10-04 22:35:00
5:55 PM,51.8,32.0,47,30.06,10.0,WNW,12.7,19.6,N/A,,Clear,290,2012-10-04 22:55:00
6:15 PM,50.0,32.0,50,30.07,10.0,WNW,12.7,19.6,N/A,,Clear,290,2012-10-04 23:15:00
6:35 PM,48.2,32.0,54,30.07,10.0,West,9.2,-,N/A,,Clear,280,2012-10-04 23:35:00
6:55 PM,46.4,32.0,57,30.08,10.0,West,11.5,18.4,N/A,,Clear,280,2012-10-04 23:55:00
7:15 PM,46.4,32.0,57,30.09,10.0,WNW,10.4,16.1,N/A,,Clear,290,2012-10-05 00:15:00
7:35 PM,44.6,32.0,61,30.09,10.0,WNW,12.7,20.7,N/A,,Clear,290,2012-10-05 00:35:00
7:55 PM,44.6,32.0,61,30.10,10.0,West,12.7,18.4,N/A,,Clear,280,2012-10-05 00:55:00
8:15 PM,42.8,32.0,66,30.10,10.0,WNW,9.2,-,N/A,,Clear,290,2012-10-05 01:15:00
8:35 PM,42.8,32.0,66,30.11,10.0,West,13.8,18.4,N/A,,Clear,280,2012-10-05 01:35:00
8:55 PM,42.8,32.0,66,30.11,10.0,West,11.5,-,N/A,,Clear,280,2012-10-05 01:55:00
9:15 PM,42.8,32.0,66,30.11,10.0,West,12.7,-,N/A,,Clear,280,2012-10-05 02:15:00
9:35 PM,42.8,32.0,66,30.12,10.0,WNW,12.7,18.4,N/A,,Clear,290,2012-10-05 02:35:00
9:55 PM,42.8,32.0,66,30.12,10.0,WNW,18.4,26.5,N/A,,Clear,300,2012-10-05 02:55:00
10:15 PM,41.0,30.2,65,30.12,10.0,WNW,17.3,24.2,N/A,,Clear,290,2012-10-05 03:15:00
10:35 PM,41.0,30.2,65,30.12,10.0,WNW,15.0,24.2,N/A,,Clear,290,2012-10-05 03:35:00
10:55 PM,41.0,30.2,65,30.12,10.0,WNW,11.5,23.0,N/A,,Clear,290,2012-10-05 03:55:00
11:15 PM,41.0,30.2,65,30.13,10.0,WNW,12.7,18.4,N/A,,Clear,290,2012-10-05 04:15:00
11:35 PM,41.0,30.2,65,30.13,10.0,WNW,10.4,17.3,N/A,,Clear,290,2012-10-05 04:35:00
11:55 PM,41.0,30.2,65,30.13,10.0,WNW,12.7,19.6,N/A,,Scattered Clouds,290,2012-10-05 04:55:00